Regional Weather Roundup
Issued by NWS

Home | Current Version | Previous Version | Graphics & Text | Print | Product List | Glossary On
Versions: 1 2 3 4 5 6 7 8 9 10 11 12 13 14 15 16 17 18 19 20 21 22 23 24 25 26 27 28 29 30 31 32 33 34 35 36 37 38 39 40 41 42 43 44 45 46 47 48 49 50
000
ASUS43 KDMX 251806
RWRIA

WEATHER ROUNDUP FOR IOWA
NATIONAL WEATHER SERVICE DES MOINES IA
100 PM CDT SAT MAR 25 2017

NOTE: "FAIR" INDICATES FEW OR NO CLOUDS BELOW 12,000 FEET WITH NO
SIGNIFICANT WEATHER AND/OR OBSTRUCTIONS TO VISIBILITY.

* - THESE STATIONS ARE NOT NWS STATIONS...THUS NOT UNDER NWS
QUALITY CONTROL.  THEY ALSO DO NOT REPORT WEATHER SUCH
AS PRECIPITATION OR FOG.

IAZ001>003-012>014-020>022-031>034-043>046-251900-
   NORTHWEST IOWA

CITY           SKY/WX    TMP DP  RH WIND       PRES   REMARKS
CARROLL *      LGT RAIN  39  39 100 NE15      29.97F WCI  31
CHEROKEE *     CLOUDY    38  37  98 NE14G20   30.03F FOG     WCI  30
LE MARS *      CLOUDY    39  37  93 NE14G22   30.05S WCI  31
ORANGE CITY *  CLOUDY    39  37  93 NE7G16    30.04S WCI  34
SHELDON *      CLOUDY    39  39 100 NE16G23   30.03F WCI  30
SIOUX CITY     CLOUDY    40  37  89 NE12      30.04S WCI  33
6HR MIN TEMP:  38; 6HR MAX TEMP:  40;

SPENCER        CLOUDY    39  36  89 NE17      30.04F WCI  30
6HR MIN TEMP:  37; 6HR MAX TEMP:  39;

STORM LAKE *   MIX PCPN  37  37 100 NE21      30.00F VSB 3/4 WCI  27
$$

IAZ055>058-069>071-079>083-090>094-251900-
   SOUTHWEST IOWA

CITY           SKY/WX    TMP DP  RH WIND       PRES   REMARKS
ATLANTIC *     LGT RAIN  41  39  93 NE15G22   29.95S
AUDUBON *      RAIN      39  37  93 NE15G22   29.96S WCI  31
CLARINDA *       N/A     43  41  93 NE16      29.94F FOG
COUNCIL BLFS * CLOUDY    41  41 100 NE13G20   29.96R
CRESTON *      CLOUDY    41  41 100 NE17G24   29.92F
HARLAN  *      LGT RAIN  41  41 100 NE15      29.99S
LAMONI         CLOUDY    45  42  89 NE16      29.88F
6HR MIN TEMP:  42; 6HR MAX TEMP:  46; 6HR PCP:  0.47;

RED OAK *      LGT RAIN  43  41  93 NE16G22   29.94F
SHENANDOAH *   LGT RAIN  43  41  93 NE20      29.93F
$$

IAZ047>049-059>061-072>074-084-251900-
   CENTRAL IOWA

CITY           SKY/WX    TMP DP  RH WIND       PRES   REMARKS
AMES           RAIN      40  40 100 NE15      29.97S FOG     WCI  32
6HR MIN TEMP:  38; 6HR MAX TEMP:  40; 6HR PCP:  0.65;

ANKENY *       LGT RAIN  39  39 100 NE13      29.97S WCI  32
BOONE *        LGT RAIN  39  39 100 NE22      29.95S WCI  29
CHARITON *       N/A     43  41  93 NE16      29.90F FOG
DES MOINES     LGT RAIN  41  39  93 NE14      29.95S FOG
6HR MIN TEMP:  40; 6HR MAX TEMP:  42; 6HR PCP:  0.58;

GRINNELL*      CLOUDY    39  38  96 NE12G18   29.96S FOG     WCI  32
MARSHALLTOWN   LGT RAIN  39  38  96 NE17G25   29.96S FOG     WCI  30
6HR MIN TEMP:  37; 6HR MAX TEMP:  39; 6HR PCP:  0.17;

NEWTON *       CLOUDY    39  37  93 NE16G24   29.94S FOG     WCI  30
PELLA *        DRIZZLE   41  41  98 NE7       29.94F
PERRY *        LGT RAIN  40  39  95 NE9       29.96F WCI  34
$$

IAZ004>006-015-016-023>025-035-036-251900-
   NORTH CENTRAL IOWA

CITY           SKY/WX    TMP DP  RH WIND       PRES   REMARKS
ALGONA *       PTSUNNY   39  39 100 NE14G22   30.03S WCI  31
CLARION *      CLOUDY    37  37 100 NE18      30.00F FOG     WCI  27
ESTHERVILLE    CLOUDY    37  37 100 NE17      30.04F WCI  27
6HR MIN TEMP:  35; 6HR MAX TEMP:  38;

FORT DODGE *   CLOUDY    37  36  93 NE12G20   30.00F WCI  30
MASON CITY     CLOUDY    38  35  89 NE21G28   30.04F WCI  28
6HR MIN TEMP:  37; 6HR MAX TEMP:  38;

FOREST CITY *  CLOUDY    37  36  93 NE15G24   30.04S WCI  28
WEBSTER CITY * RAIN      37  37 100 NE16      29.96F WCI  28
IOWA FALLS *   LGT RAIN  38  37  95 NE17      29.99F WCI  29
$$

IAZ007>011-017>019-026>030-037>042-050>054-066-251900-
   NORTHEAST IOWA

CITY           SKY/WX    TMP DP  RH WIND       PRES   REMARKS
CEDAR RAPIDS   LGT RAIN  41  41 100 NE17      29.93F FOG
6HR MIN TEMP:  39; 6HR MAX TEMP:  41; 6HR PCP:  0.27;

CHARLES CITY * CLOUDY    39  39 100 NE16G26   30.02S WCI  30
CLINTON *      CLOUDY    43  42  97 E22       29.94F
DECORAH *      CLOUDY    37  36  93 NE12G22   30.02F WCI  30
DUBUQUE        LGT RAIN  40  39  97 NE18G25   29.98R FOG     WCI  31
6HR MIN TEMP:  37; 6HR MAX TEMP:  40; 6HR PCP:  0.14;

MONTICELLO *   LGT RAIN  41  39  93 NE14G22   29.96F
OELWEIN *      LGT RAIN  39  39 100 NE21      29.97F WCI  29
WATERLOO       LGT RAIN  39  37  92 NE17      29.98F FOG     WCI  30
6HR MIN TEMP:  37; 6HR MAX TEMP:  39; 6HR PCP:  0.16;

$$

IAZ064-065-067-068-078-251900-
   EAST CENTRAL IOWA

CITY           SKY/WX    TMP DP  RH WIND       PRES   REMARKS
DAVENPORT      CLOUDY    44  42  93 E15       29.93S
6HR MIN TEMP:  41; 6HR MAX TEMP:  44; 6HR PCP:  0.33;

IOWA CITY      CLOUDY    44  41  89 NE13      29.94F FOG
6HR MIN TEMP:  42; 6HR MAX TEMP:  44; 6HR PCP:  0.25;

MUSCATINE *    CLOUDY    46  45  93 NE10G17   29.92F FOG
QUAD CITIES    CLOUDY    45  43  93 E13       29.92S
6HR MIN TEMP:  42; 6HR MAX TEMP:  45; 6HR PCP:  0.47;

$$

IAZ062-063-075>077-085>089-095>099-251900-
   SOUTHEAST IOWA

CITY           SKY/WX    TMP DP  RH WIND       PRES   REMARKS
BURLINGTON     CLOUDY    50  32  50 MISG      29.87F
6HR MIN TEMP:  45; 6HR MAX TEMP:  50; 6HR PCP:  0.03;

FAIRFIELD *    CLOUDY    45  45 100 NE15      29.89F FOG
FORT MADISON * CLOUDY    52  52 100 NE7       29.88F FOG
KEOKUK *       CLOUDY    52  50  93 NE8       29.86F
OSKALOOSA *    CLOUDY    43  42  97 NE16      29.91F
OTTUMWA        CLOUDY    44  43  96 NE16      29.90S
6HR MIN TEMP:  43; 6HR MAX TEMP:  44; 6HR PCP:  0.28;

WASHINGTON *   FOG       43  43 100 NE15G21   29.92S VSB 1
$$

ABBREVIATIONS USED IN REMARKS
   TC - TEMPERATURES IN CELSIUS
  WCI - WIND CHILL INDEX
   HX - HEAT INDEX
  VSB - VISIBILITY
$$




USA.gov is the U.S. government's official web portal to all federal, state and local government web resources and services.